Tracking 30923 objects as of 1-Jul-2025
HD Live streaming from Space Station
objects crossing your sky now

STARLINK-3637

Track STARLINK-3637 now!
10-day predictions
STARLINK-3637 is classified as:


NORAD ID: 51799
Int'l Code: 2022-017AH
Perigee: 545.9 km
Apogee: 547.9 km
Inclination: 53.2 °
Period: 95.4 minutes
Semi major axis: 6917 km
RCS: Unknown
Launch date: February 25, 2022
Source: United States (US)
Launch site: AIR FORCE WESTERN TEST RANGE (AFWTR)
Your satellite tracking list
Your tracking list is empty




NASA's NSSDC Master Catalog

Two Line Element Set (TLE):
1 51799U 22017AH  25181.91133502 -.00000012  00000-0  17339-4 0  9995
2 51799  53.2193  39.3965 0001429  91.9911 268.1245 15.08842547185913
Source of the keplerian elements: AFSPC